Temperature
-2 -1 -1 0 1 1 2 3 4 5 7 7 8 8 8 9 9 10 10 11 12 12 12 12 12 12 12 12 12 12 11 11 11 11 11 11 11 11
-3 -2 -1 -1 -0 1 1 2 3 3 5 6 7 7 8 8 9 9 9 10 11 11 11 11 12 12 12 12 11 11 11 11 10 10 10 10 10 10
-4 -3 -2 -2 -1 -0 1 1 2 2 3 5 5 6 7 8 8 8 8 9 9 9 10 10 10 11 11 11 11 10 10 10 9 9 9 9 9 9
-5 -4 -3 -2 -2 -1 -0 0 1 2 2 4 4 5 6 7 7 7 8 8 8 8 8 8 9 9 9 9 9 9 9 8 8 8 8 8 8 8
-6 -5 -4 -3 -3 -2 -1 -0 0 1 2 2 3 4 5 6 6 6 6 6 6 6 6 6 7 7 7 7 7 7 7 7 7 7 7 7 7 7
-6 -6 -5 -4 -4 -3 -2 -1 -0 0 1 2 3 3 4 5 5 5 5 5 5 5 5 5 5 5 5 6 6 6 5 5 6 6 6 6 6 6
-7 -6 -6 -5 -5 -4 -3 -2 -1 -0 0 1 2 3 3 4 4 5 5 4 4 4 4 4 4 4 4 4 4 4 5 5 5 5 5 5 6 6
-7 -7 -7 -6 -6 -4 -4 -3 -2 -1 -1 0 1 2 2 3 4 4 4 4 3 3 3 3 3 4 4 4 4 4 4 4 4 4 5 5 5 5
-8 -8 -7 -7 -6 -6 -5 -4 -3 -2 -2 -1 -0 0 1 2 3 3 3 3 3 3 3 3 3 3 3 4 4 4 4 4 4 4 4 4 4 4
-8 -8 -8 -7 -7 -7 -6 -5 -5 -4 -4 -3 -2 -1 -0 1 2 2 2 2 2 2 3 3 2 2 2 3 3 3 3 3 3 4 4 4 4 4
-9 -8 -8 -8 -8 -7 -7 -6 -6 -6 -5 -4 -4 -3 -2 -1 0 1 2 2 2 1 2 2 1 1 1 1 1 2 2 3 3 3 3 3 3 3
-9 -9 -8 -8 -8 -8 -8 -8 -7 -7 -7 -6 -5 -4 -3 -2 -1 -0 0 1 1 1 1 1 0 0 -0 -0 0 1 1 2 2 2 2 2 2 3
-9 -9 -9 -8 -8 -8 -9 -9 -9 -8 -8 -7 -7 -6 -5 -4 -3 -2 -1 -1 0 0 -0 0 -0 0 0 -1 -1 -0 0 1 1 1 1 2 2 2
-10 -9 -9 -9 -9 -9 -9 -10 -9 -9 -9 -9 -8 -8 -7 -7 -6 -5 -4 -3 -2 -2 -2 -1 -1 -0 -0 -1 -2 -1 -1 -1 -0 0 0 1 1 1
-11 -10 -10 -10 -10 -10 -10 -10 -10 -10 -10 -10 -10 -10 -9 -9 -8 -8 -7 -6 -5 -4 -3 -3 -2 -2 -1 -1 -2 -2 -2 -2 -2 -1 -1 -0 0 0
-11 -11 -11 -11 -11 -11 -11 -11 -11 -11 -11 -11 -11 -11 -11 -10 -9 -9 -9 -8 -7 -7 -6 -5 -5 -4 -4 -4 -3 -4 -4 -3 -3 -2 -2 -1 -1 -1
-12 -12 -12 -12 -12 -12 -12 -12 -12 -12 -12 -12 -12 -11 -11 -11 -10 -10 -9 -9 -9 -9 -8 -8 -7 -7 -6 -6 -6 -6 -5 -5 -4 -3 -3 -3 -2 -2
-13 -13 -13 -13 -13 -13 -13 -13 -13 -13 -13 -13 -13 -12 -12 -12 -11 -11 -10 -10 -10 -9 -9 -9 -8 -8 -7 -7 -7 -8 -7 -7 -6 -5 -4 -4 -4 -4
-14 -14 -14 -14 -14 -14 -14 -14 -14 -14 -14 -14 -14 -14 -13 -13 -12 -12 -12 -11 -11 -11 -10 -10 -9 -9 -9 -9 -9 -8 -9 -8 -7 -7 -6 -5 -4 -4
-14 -14 -15 -15 -15 -15 -15 -15 -15 -15 -15 -15 -15 -14 -14 -14 -14 -13 -13 -13 -13 -12 -12 -11 -10 -10 -10 -11 -11 -10 -9 -9 -8 -8 -7 -6 -5 -5
-15 -15 -15 -15 -15 -15 -15 -15 -15 -15 -15 -15 -15 -15 -15 -15 -15 -15 -14 -14 -14 -13 -13 -13 -12 -11 -11 -11 -11 -11 -11 -10 -9 -9 -8 -7 -6 -5
-15 -15 -15 -15 -15 -15 -15 -15 -16 -16 -16 -16 -16 -15 -15 -15 -15 -15 -15 -15 -15 -14 -14 -14 -13 -13 -12 -12 -12 -12 -11 -11 -10 -10 -9 -9 -8 -7
-15 -15 -15 -15 -15 -15 -16 -16 -16 -16 -16 -16 -16 -16 -15 -15 -15 -15 -15 -15 -15 -15 -14 -14 -14 -13 -13 -13 -13 -12 -12 -11 -11 -10 -9 -9 -9 -8
Wind_Speed
13 14 12 10 9 9 9 9 10 12 14 14 11 10 9 8 9 11 12 13 16 17 17 18 21 23 24 25 26 25 23 23 23 21 20 18 17 15
12 13 13 10 9 9 8 8 9 11 13 12 10 8 7 7 8 9 8 11 13 15 15 16 17 18 19 21 23 23 23 23 23 21 20 18 17 15
14 13 13 13 10 9 8 8 8 9 12 12 9 7 7 7 6 6 8 8 10 16 17 19 19 20 21 21 22 23 22 21 20 19 19 18 16 15
14 14 13 12 13 10 8 9 8 9 10 12 9 7 7 7 6 7 7 7 9 15 17 19 19 20 21 20 21 21 19 19 18 17 17 16 15 13
12 12 12 12 12 11 10 8 7 8 9 9 9 6 4 5 7 7 8 7 9 13 16 18 19 20 20 20 20 20 20 19 19 17 16 14 13 12
10 11 11 11 12 13 10 9 7 7 7 8 8 7 5 6 7 9 9 8 9 10 11 14 17 19 20 20 20 20 20 19 18 17 17 15 13 11
10 10 10 12 15 13 11 9 7 5 5 6 7 6 6 7 8 7 10 9 8 9 11 10 12 11 13 17 19 20 20 19 18 18 17 16 14 12
10 10 10 11 13 16 17 17 14 8 5 4 4 4 5 5 5 7 9 10 6 5 10 9 9 10 9 12 17 20 21 21 19 18 18 16 15 13
9 10 9 10 11 10 12 16 17 19 16 8 5 4 3 3 3 8 9 10 6 7 10 7 7 9 8 14 20 21 21 21 20 18 17 15 13 11
9 10 10 10 10 10 9 10 12 15 16 12 10 11 10 8 5 2 7 9 9 5 5 5 6 8 9 13 18 19 19 19 18 16 15 13 12 10
8 10 11 9 11 11 9 10 11 12 15 20 21 21 25 24 15 5 6 9 5 3 4 4 6 6 7 8 13 17 16 15 15 14 13 11 9 7
8 9 11 10 11 12 10 10 11 11 11 13 16 18 18 20 23 14 7 5 5 3 3 3 5 5 5 4 5 9 11 12 12 12 11 9 5 3
8 8 8 11 14 15 14 12 12 10 10 11 11 13 13 14 15 15 13 9 6 5 3 3 4 3 5 5 3 4 5 6 7 8 8 7 5 2
9 7 7 13 17 18 14 15 15 12 9 10 11 11 11 11 12 13 15 15 14 11 9 6 3 4 5 5 5 5 5 5 5 4 4 4 3 2
9 12 13 16 16 14 18 18 14 10 10 10 10 10 9 9 9 9 11 13 15 16 16 14 8 6 5 5 6 7 5 4 4 3 2 1 0 1
8 11 15 17 15 14 14 12 11 11 10 9 9 9 8 9 9 8 7 6 8 10 13 14 11 9 8 8 7 6 5 4 3 2 0 1 2 4
8 7 8 9 9 9 9 10 9 9 10 9 9 8 8 9 9 8 8 8 7 8 8 8 9 10 8 6 6 6 5 4 3 1 1 3 3 4
9 8 9 9 9 9 8 9 9 9 9 8 8 8 8 8 8 8 8 8 8 7 7 6 4 5 5 7 7 4 4 4 2 1 2 4 4 4
9 8 8 8 7 7 7 7 7 7 7 7 8 8 7 7 7 7 7 7 7 7 7 6 6 3 4 4 4 6 4 2 2 2 3 4 6 6
8 7 7 7 6 6 6 5 5 5 5 6 6 6 6 6 6 6 6 6 5 5 5 6 7 7 5 3 2 2 4 3 3 3 4 5 6 9
6 6 6 6 5 5 5 4 4 4 4 4 4 4 5 5 5 5 4 5 5 4 4 5 5 5 3 1 0 0 1 2 4 5 5 6 6 5
5 5 5 5 5 4 4 3 3 3 3 3 3 3 3 3 3 3 3 3 3 3 3 3 3 2 2 2 2 3 4 4 5 9 11 10 6 4
4 4 4 4 4 4 3 3 3 3 3 3 3 3 2 2 2 2 3 3 3 3 3 2 2 1 2 2 3 4 6 6 6 6 6 9 14 19
Wind_Direction
313 308 300 289 283 278 272 263 261 261 258 253 247 242 240 238 225 224 229 210 205 207 206 203 197 193 191 187 184 181 171 162 158 158 160 159 155 150
317 315 314 304 292 282 275 269 259 258 260 261 254 246 236 232 218 218 204 166 167 164 157 155 155 156 158 159 158 153 151 149 149 152 154 153 148 144
322 322 320 317 307 293 281 271 265 258 257 257 253 246 233 221 195 185 161 152 144 136 132 127 125 125 126 130 134 138 141 141 143 147 149 148 145 142
325 326 327 330 324 314 299 282 271 260 257 256 244 231 225 211 181 166 150 143 138 135 131 126 123 122 122 124 126 128 131 132 133 137 140 142 143 143
326 327 329 334 333 328 317 300 288 272 255 253 248 225 214 193 170 151 138 132 134 139 137 133 131 129 129 128 128 130 132 131 128 127 128 129 134 136
331 331 332 338 338 334 328 316 300 286 268 251 244 222 199 184 168 157 146 140 140 144 137 134 135 133 136 136 135 132 132 131 129 128 125 123 124 123
336 335 335 343 347 346 347 344 329 304 289 262 242 221 194 179 170 163 152 140 130 143 137 138 138 135 133 133 133 134 132 130 128 126 122 118 114 108
340 339 340 347 352 353 360 10 15 5 331 299 258 224 190 175 160 157 147 142 134 132 129 125 136 135 137 138 137 132 128 126 124 120 116 112 107 103
345 344 347 350 357 357 6 17 21 26 28 20 19 19 25 21 152 161 160 151 131 138 126 111 117 118 115 121 126 125 124 123 120 118 115 112 109 105
349 345 346 349 8 10 14 26 28 27 31 36 35 35 33 22 18 103 122 104 92 69 103 116 116 105 102 106 111 113 115 115 116 117 116 114 112 107
349 347 348 353 22 23 25 33 35 28 29 40 43 41 39 39 36 63 114 133 121 66 40 106 122 98 78 81 98 102 105 109 113 115 115 115 115 120
351 347 353 12 38 41 37 39 39 32 30 34 38 37 37 37 38 36 34 107 113 97 47 91 129 123 103 69 78 96 98 102 107 110 110 109 113 149
350 347 360 32 54 55 52 49 46 39 38 41 41 39 39 38 39 40 39 47 75 79 51 88 118 112 117 123 111 105 112 121 118 113 104 96 80 45
348 348 20 52 61 58 54 48 45 42 43 45 45 41 39 39 43 49 52 56 59 60 46 56 94 121 124 124 134 139 127 127 133 131 124 121 120 91
9 31 55 59 60 56 50 47 42 40 42 46 46 43 40 40 43 53 60 63 61 56 50 51 66 86 96 121 133 146 143 136 130 129 134 163 244 275
27 39 51 58 57 52 48 45 42 42 42 43 43 42 40 41 40 39 45 54 62 58 51 50 54 70 87 97 113 124 125 135 145 136 159 277 276 271
36 48 49 49 50 49 47 45 42 40 41 38 39 40 40 42 40 38 43 57 65 63 54 51 59 66 65 82 105 112 120 122 117 70 319 291 274 261
47 50 50 49 47 44 43 42 40 38 36 37 38 38 38 38 41 42 47 54 59 57 53 47 72 107 100 67 46 99 110 105 82 1 312 297 291 280
48 48 46 44 43 41 40 40 40 37 34 36 36 33 35 37 39 40 44 51 54 54 48 38 35 57 118 118 82 43 65 60 8 330 314 301 295 297
42 42 40 38 36 33 32 31 30 31 31 32 33 31 28 31 34 37 39 39 44 48 52 49 41 33 40 59 77 82 42 4 343 324 318 308 294 288
35 33 31 29 28 25 22 20 17 20 21 15 22 22 19 21 25 25 30 32 31 35 40 44 37 6 349 344 287 332 23 353 311 299 310 309 307 298
24 22 18 14 11 9 5 2 358 1 1 354 357 357 356 356 359 357 359 1 7 11 8 9 3 346 340 333 322 318 314 320 299 281 267 258 275 295
3 359 354 350 346 344 338 333 323 322 320 317 313 311 307 300 299 298 296 296 303 313 317 325 331 326 317 309 301 300 303 308 307 304 290 273 263 264
Height
1429 1426 1424 1422 1421 1420 1419 1420 1420 1418 1417 1419 1420 1420 1421 1423 1425 1427 1429 1431 1436 1440 1445 1450 1456 1461 1467 1472 1478 1483 1487 1492 1497 1502 1506 1510 1514 1517
1424 1421 1419 1417 1415 1414 1413 1413 1413 1413 1412 1413 1414 1415 1415 1417 1419 1421 1423 1425 1429 1433 1437 1442 1448 1454 1459 1465 1471 1476 1481 1486 1492 1497 1501 1505 1509 1513
1420 1417 1414 1411 1410 1408 1407 1406 1406 1407 1406 1407 1408 1408 1410 1412 1414 1416 1418 1421 1424 1427 1432 1436 1441 1447 1453 1459 1465 1470 1475 1480 1486 1491 1496 1501 1505 1508
1417 1413 1410 1407 1404 1402 1401 1400 1400 1400 1401 1401 1402 1403 1404 1407 1409 1411 1414 1418 1421 1424 1428 1433 1437 1442 1447 1453 1459 1464 1470 1475 1480 1486 1491 1496 1500 1504
1414 1410 1407 1404 1401 1398 1396 1395 1394 1393 1394 1395 1396 1397 1399 1401 1404 1407 1410 1415 1419 1422 1427 1431 1435 1440 1445 1450 1455 1461 1467 1472 1477 1482 1487 1492 1497 1500
1411 1408 1404 1401 1398 1395 1392 1390 1389 1388 1388 1388 1390 1391 1393 1396 1400 1403 1407 1412 1416 1421 1426 1430 1435 1440 1444 1449 1454 1459 1465 1471 1475 1481 1485 1489 1494 1497
1409 1405 1402 1399 1396 1393 1390 1387 1385 1383 1383 1383 1384 1386 1388 1390 1394 1399 1403 1409 1415 1420 1424 1430 1435 1440 1444 1450 1455 1460 1465 1470 1475 1480 1483 1487 1491 1493
1407 1404 1401 1397 1394 1391 1388 1385 1383 1380 1379 1379 1379 1380 1382 1385 1389 1394 1399 1404 1412 1417 1421 1429 1435 1440 1444 1450 1455 1460 1464 1469 1475 1478 1481 1484 1487 1490
1407 1404 1401 1397 1394 1390 1387 1384 1382 1379 1378 1377 1376 1376 1378 1381 1385 1390 1395 1400 1406 1413 1420 1426 1432 1437 1443 1448 1453 1459 1463 1468 1472 1476 1479 1482 1484 1488
1407 1404 1401 1398 1395 1391 1388 1385 1382 1380 1378 1376 1376 1375 1376 1378 1383 1387 1391 1397 1404 1410 1417 1422 1429 1434 1440 1446 1451 1456 1461 1465 1469 1473 1476 1479 1481 1484
1407 1404 1401 1399 1396 1392 1390 1387 1385 1382 1380 1379 1377 1376 1376 1378 1381 1386 1390 1395 1401 1406 1412 1418 1424 1430 1436 1442 1447 1452 1457 1461 1465 1469 1472 1475 1478 1480
1407 1404 1402 1400 1397 1394 1392 1390 1388 1386 1384 1381 1380 1379 1379 1380 1382 1385 1389 1394 1398 1404 1410 1415 1421 1427 1434 1439 1443 1448 1453 1457 1461 1465 1468 1470 1473 1475
1408 1405 1403 1400 1399 1397 1395 1393 1392 1390 1388 1385 1384 1383 1382 1383 1383 1386 1389 1393 1397 1401 1407 1413 1418 1423 1428 1434 1440 1445 1449 1453 1457 1460 1463 1466 1468 1470
1409 1406 1404 1402 1400 1399 1398 1397 1395 1394 1392 1390 1389 1388 1388 1388 1388 1389 1391 1393 1397 1400 1405 1410 1415 1420 1425 1430 1436 1441 1445 1449 1452 1455 1458 1460 1463 1464
1410 1407 1405 1403 1402 1402 1401 1400 1399 1398 1396 1395 1394 1394 1394 1394 1394 1394 1395 1396 1398 1401 1404 1409 1413 1418 1423 1427 1432 1436 1441 1445 1448 1451 1453 1455 1457 1459
1411 1409 1407 1406 1405 1405 1405 1404 1403 1402 1401 1400 1400 1400 1399 1399 1399 1399 1400 1401 1402 1404 1406 1409 1413 1417 1421 1425 1430 1433 1437 1441 1444 1447 1449 1451 1452 1453
1414 1412 1411 1411 1410 1409 1409 1408 1407 1407 1406 1405 1405 1404 1404 1404 1403 1404 1404 1405 1407 1408 1410 1412 1415 1418 1421 1425 1429 1432 1435 1438 1440 1442 1445 1446 1448 1448
1417 1416 1415 1415 1414 1414 1413 1412 1411 1410 1410 1409 1408 1408 1408 1408 1408 1408 1408 1409 1410 1412 1413 1415 1418 1420 1423 1426 1429 1431 1433 1435 1437 1439 1441 1442 1444 1444
1420 1420 1419 1419 1418 1417 1416 1416 1415 1414 1413 1412 1412 1411 1411 1411 1411 1411 1412 1412 1413 1414 1415 1417 1419 1422 1424 1426 1428 1430 1432 1433 1434 1436 1437 1438 1438 1439
1424 1423 1423 1422 1421 1420 1419 1418 1417 1416 1416 1415 1414 1414 1414 1414 1414 1414 1414 1415 1416 1417 1417 1418 1419 1421 1424 1426 1427 1428 1429 1430 1432 1433 1433 1433 1434 1434
1428 1427 1426 1424 1423 1422 1420 1419 1418 1418 1417 1417 1416 1416 1416 1416 1416 1416 1416 1416 1417 1418 1419 1419 1419 1421 1422 1424 1426 1427 1428 1428 1428 1429 1430 1430 1430 1430
1431 1429 1428 1426 1425 1423 1421 1420 1419 1418 1418 1417 1417 1417 1416 1416 1417 1417 1417 1418 1418 1419 1419 1419 1420 1421 1422 1423 1424 1425 1425 1426 1426 1426 1427 1426 1425 1426
1433 1431 1429 1427 1425 1424 1422 1421 1420 1419 1418 1417 1417 1416 1416 1416 1416 1417 1417 1417 1418 1418 1418 1419 1419 1420 1420 1421 1422 1422 1423 1423 1423 1423 1424 1423 1422 1422